• In Belgium
  • List of Countries
  • For 7 days
  • Water Temperature
  • Satellite Maps
  • Weather Map
  • Weather Widgets
  • user-avatar
    Login

    Hourly Weather Yeghegnadzor

    Today, 24 January, Wednesday

    Time Temperature Precipitation Wind Pressure Humidity
    00:00 +1°C° 0 mm 2 mps 647 mmHg 60%
    01:00 -1°C° 0.1 mm 2 mps 647 mmHg 62%
    02:00 -1°C° 0.1 mm 2 mps 647 mmHg 64%
    03:00 +1°C° 0 mm 2 mps 647 mmHg 65%
    04:00 +1°C° 0 mm 2 mps 647 mmHg 67%
    05:00 -1°C° 0 mm 2 mps 647 mmHg 69%
    06:00 -2°C° 0 mm 2 mps 648 mmHg 71%
    07:00 -1°C° 0 mm 2 mps 648 mmHg 71%
    08:00 +1°C° 0 mm 2 mps 649 mmHg 70%
    09:00 +2°C° 0 mm 2 mps 649 mmHg 71%
    10:00 +3°C° 0.1 mm 2 mps 649 mmHg 70%
    11:00 +3°C° 0.1 mm 2 mps 649 mmHg 69%
    12:00 +4°C° 0.1 mm 2 mps 650 mmHg 68%
    13:00 +5°C° 0.1 mm 1 mps 650 mmHg 68%
    14:00 +5°C° 0.1 mm 1 mps 649 mmHg 68%
    15:00 +6°C° 0.1 mm 1 mps 649 mmHg 68%
    16:00 +4°C° 0.1 mm 1 mps 649 mmHg 70%
    17:00 +3°C° 0.1 mm 1 mps 650 mmHg 72%
    18:00 +2°C° 0.1 mm 1 mps 650 mmHg 74%
    19:00 +2°C° 0.1 mm 1 mps 650 mmHg 74%
    20:00 +1°C° 0.1 mm 2 mps 650 mmHg 73%
    21:00 +1°C° 0.1 mm 2 mps 650 mmHg 73%
    22:00 +1°C° 0.2 mm 2 mps 651 mmHg 74%
    23:00 +1°C° 0.2 mm 2 mps 651 mmHg 75%

    Tomorrow, 25 January, Thursday

    Time Temperature Precipitation Wind Pressure Humidity
    00:00 +1°C° 0.2 mm 2 mps 651 mmHg 76%
    01:00 +1°C° 0.3 mm 2 mps 651 mmHg 77%
    02:00 +1°C° 0.3 mm 2 mps 652 mmHg 78%
    03:00 +1°C° 0.3 mm 2 mps 652 mmHg 79%
    04:00 +1°C° 0.2 mm 2 mps 652 mmHg 80%
    05:00 +1°C° 0.2 mm 2 mps 652 mmHg 81%
    06:00 +2°C° 0.2 mm 1 mps 652 mmHg 81%
    07:00 +2°C° 0.2 mm 1 mps 652 mmHg 80%
    08:00 +3°C° 0.2 mm 1 mps 652 mmHg 80%
    09:00 +3°C° 0.2 mm 1 mps 653 mmHg 79%
    10:00 +4°C° 0.2 mm 1 mps 653 mmHg 78%
    11:00 +5°C° 0.2 mm 1 mps 653 mmHg 76%
    12:00 +5°C° 0.2 mm 1 mps 653 mmHg 75%
    13:00 +5°C° 0.2 mm 1 mps 653 mmHg 75%
    14:00 +6°C° 0.2 mm 1 mps 652 mmHg 75%
    15:00 +6°C° 0.2 mm 1 mps 652 mmHg 75%
    16:00 +5°C° 0.1 mm 1 mps 652 mmHg 76%
    17:00 +4°C° 0.1 mm 1 mps 652 mmHg 78%
    18:00 +3°C° 0.1 mm 1 mps 652 mmHg 79%
    19:00 +2°C° 0 mm 2 mps 652 mmHg 79%
    20:00 +1°C° 0 mm 2 mps 652 mmHg 79%
    21:00 +1°C° 0 mm 2 mps 652 mmHg 79%
    22:00 +1°C° 0 mm 2 mps 652 mmHg 79%
    23:00 -1°C° 0 mm 2 mps 652 mmHg 79%

    Day after tomorrow, 26 January, Friday

    Time Temperature Precipitation Wind Pressure Humidity
    00:00 -1°C° 0 mm 2 mps 652 mmHg 78%
    01:00 -1°C° 0 mm 2 mps 652 mmHg 78%
    02:00 -1°C° 0 mm 2 mps 652 mmHg 78%
    03:00 -1°C° 0 mm 2 mps 652 mmHg 78%
    04:00 -1°C° 0 mm 2 mps 651 mmHg 79%
    05:00 -1°C° 0 mm 2 mps 651 mmHg 79%
    06:00 -1°C° 0 mm 3 mps 651 mmHg 79%
    07:00 -1°C° 0.1 mm 2 mps 651 mmHg 79%
    08:00 +1°C° 0.1 mm 2 mps 651 mmHg 79%
    09:00 +1°C° 0.1 mm 2 mps 652 mmHg 79%
    10:00 +2°C° 0.3 mm 2 mps 652 mmHg 79%
    11:00 +2°C° 0.3 mm 2 mps 652 mmHg 78%
    12:00 +3°C° 0.3 mm 2 mps 652 mmHg 78%
    13:00 +3°C° 0.2 mm 2 mps 652 mmHg 78%
    14:00 +3°C° 0.2 mm 2 mps 652 mmHg 77%
    15:00 +3°C° 0.2 mm 2 mps 651 mmHg 77%
    16:00 +2°C° 0.2 mm 2 mps 651 mmHg 80%
    17:00 +3°C° 0.2 mm 1 mps 652 mmHg 82%
    18:00 +2°C° 0.2 mm 1 mps 652 mmHg 84%
    19:00 +2°C° 0.3 mm 1 mps 652 mmHg 84%
    20:00 +1°C° 0.3 mm 2 mps 652 mmHg 84%
    21:00 -1°C° 0.3 mm 2 mps 652 mmHg 84%
    22:00 +1°C° 0.3 mm 1 mps 652 mmHg 84%
    23:00 +1°C° 0.3 mm 1 mps 652 mmHg 85%

    27 January, Saturday

    Time Temperature Precipitation Wind Pressure Humidity
    00:00 +1°C° 0.3 mm 1 mps 652 mmHg 85%
    01:00 +1°C° 0.2 mm 1 mps 653 mmHg 85%
    02:00 +1°C° 0.2 mm 1 mps 653 mmHg 85%
    03:00 -1°C° 0.2 mm 2 mps 653 mmHg 86%
    04:00 -2°C° 0.2 mm 2 mps 653 mmHg 86%
    05:00 -2°C° 0.2 mm 2 mps 653 mmHg 86%
    06:00 -2°C° 0.2 mm 2 mps 652 mmHg 86%
    07:00 -2°C° 0.2 mm 2 mps 653 mmHg 84%
    08:00 -1°C° 0.2 mm 2 mps 653 mmHg 83%
    09:00 -1°C° 0.2 mm 2 mps 654 mmHg 81%
    10:00 +1°C° 0.1 mm 2 mps 654 mmHg 79%
    11:00 +1°C° 0.1 mm 2 mps 654 mmHg 76%
    12:00 +2°C° 0.1 mm 2 mps 654 mmHg 74%
    13:00 +2°C° 0.2 mm 2 mps 654 mmHg 74%
    14:00 +2°C° 0.2 mm 2 mps 654 mmHg 73%
    15:00 +2°C° 0.2 mm 2 mps 654 mmHg 73%
    16:00 +1°C° 0.1 mm 2 mps 654 mmHg 75%
    17:00 -1°C° 0.1 mm 2 mps 654 mmHg 78%
    18:00 -1°C° 0.1 mm 2 mps 655 mmHg 80%
    19:00 -2°C° 0.1 mm 2 mps 655 mmHg 80%
    20:00 -2°C° 0.1 mm 2 mps 655 mmHg 80%
    21:00 -3°C° 0.1 mm 2 mps 656 mmHg 81%
    22:00 -3°C° 0.1 mm 2 mps 656 mmHg 81%
    23:00 -4°C° 0.1 mm 2 mps 656 mmHg 81%

    28 January, Sunday

    Time Temperature Precipitation Wind Pressure Humidity
    00:00 -4°C° 0.1 mm 2 mps 656 mmHg 81%
    01:00 -5°C° 0 mm 2 mps 656 mmHg 81%
    02:00 -5°C° 0 mm 2 mps 656 mmHg 81%
    03:00 -5°C° 0 mm 2 mps 656 mmHg 80%
    04:00 -6°C° 0 mm 2 mps 656 mmHg 80%
    05:00 -6°C° 0 mm 2 mps 657 mmHg 80%
    06:00 -6°C° 0 mm 2 mps 657 mmHg 80%
    07:00 -3°C° 0 mm 1 mps 657 mmHg 78%
    08:00 -2°C° 0 mm 1 mps 658 mmHg 76%
    09:00 -2°C° 0 mm 1 mps 659 mmHg 75%
    10:00 -1°C° 0 mm 1 mps 659 mmHg 73%
    11:00 0°C° 0 mm 1 mps 658 mmHg 71%
    12:00 +1°C° 0 mm 1 mps 658 mmHg 69%
    13:00 -1°C° 0.1 mm 2 mps 658 mmHg 69%
    14:00 -1°C° 0.1 mm 2 mps 658 mmHg 69%
    15:00 -1°C° 0.1 mm 2 mps 658 mmHg 69%
    16:00 -2°C° 0 mm 2 mps 658 mmHg 72%
    17:00 -1°C° 0 mm 1 mps 658 mmHg 75%
    18:00 -2°C° 0 mm 1 mps 658 mmHg 78%
    19:00 -2°C° 0 mm 1 mps 658 mmHg 78%
    20:00 -3°C° 0 mm 1 mps 658 mmHg 78%
    21:00 -3°C° 0 mm 1 mps 658 mmHg 78%
    22:00 -4°C° 0 mm 1 mps 658 mmHg 78%
    23:00 -4°C° 0 mm 1 mps 657 mmHg 77%

    29 January, Monday

    Time Temperature Precipitation Wind Pressure Humidity
    00:00 -6°C° 0 mm 1 mps 657 mmHg 76%
    01:00 -6°C° 0 mm 1 mps 657 mmHg 75%
    02:00 -6°C° 0 mm 1 mps 657 mmHg 74%
    03:00 -6°C° 0 mm 1 mps 656 mmHg 73%
    04:00 -7°C° 0 mm 1 mps 656 mmHg 72%
    05:00 -7°C° 0 mm 1 mps 656 mmHg 71%
    06:00 -7°C° 0 mm 1 mps 656 mmHg 70%
    07:00 -6°C° 0 mm 1 mps 656 mmHg 68%
    08:00 -4°C° 0 mm 1 mps 657 mmHg 65%
    09:00 -3°C° 0 mm 1 mps 657 mmHg 63%
    10:00 -2°C° 0 mm 1 mps 656 mmHg 62%
    11:00 -1°C° 0 mm 1 mps 656 mmHg 60%
    12:00 0°C° 0 mm 1 mps 656 mmHg 58%
    13:00 0°C° 0 mm 1 mps 655 mmHg 60%
    14:00 0°C° 0 mm 1 mps 655 mmHg 61%
    15:00 0°C° 0 mm 1 mps 654 mmHg 62%
    16:00 -1°C° 0 mm 1 mps 654 mmHg 66%
    17:00 -3°C° 0 mm 1 mps 653 mmHg 70%
    18:00 -4°C° 0 mm 1 mps 653 mmHg 74%
    19:00 -4°C° 0 mm 1 mps 653 mmHg 74%
    20:00 -4°C° 0 mm 1 mps 653 mmHg 74%
    21:00 -4°C° 0 mm 1 mps 653 mmHg 75%
    22:00 -4°C° 0 mm 1 mps 653 mmHg 75%
    23:00 -6°C° 0 mm 1 mps 653 mmHg 75%
    Show more